EW7354 Weather Reports


time (UTC)temp
C
wind
direction
speed
KPH
gust
KPH
rain 1hr
cm
rain 24hr
cm
rain mn
cm
humidity
%
barometer
mb
20260508213007 27 266 1.6 4.8 0.00 0.00 0.00 17 1007.9
20260508211506 27 114 1.6 6.4 0.00 0.00 0.00 19 1008.2
20260508210003 27 188 0.0 6.4 0.00 0.00 0.00 19 1008.3
20260508204505 27 248 1.6 8.0 0.00 0.00 0.00 17 1008.4
20260508203001 27 97 1.6 6.4 0.00 0.00 0.00 18 1008.6
20260508201601 26 127 1.6 6.4 0.00 0.00 0.00 18 1008.8
20260508200058 26 135 0.0 6.4 0.00 0.00 0.00 19 1008.8
20260508194555 26 113 1.6 4.8 0.00 0.00 0.00 19 1008.8
20260508193126 25 129 0.0 6.4 0.00 0.00 0.00 21 1009.0
20260508191554 25 219 0.0 4.8 0.00 0.00 0.00 21 1009.2
20260508190055 25 276 1.6 8.0 0.00 0.00 0.00 20 1009.3
20260508184614 25 130 0.0 8.0 0.00 0.00 0.00 21 1009.4
20260508183054 25 124 0.0 3.2 0.00 0.00 0.00 22 1009.5
20260508181549 25 252 1.6 6.4 0.00 0.00 0.00 22 1009.6
20260508180057 25 293 0.0 4.8 0.00 0.00 0.00 22 1009.7
20260508174601 25 348 0.0 3.2 0.00 0.00 0.00 24 1009.9
20260508173041 24 91 0.0 3.2 0.00 0.00 0.00 25 1009.9
20260508171600 23 119 0.0 3.2 0.00 0.00 0.00 27 1009.8
20260508170040 23 124 0.0 3.2 0.00 0.00 0.00 29 1009.7
20260508164539 23 213 0.0 1.6 0.00 0.00 0.00 27 1009.7
20260508163036 23 129 0.0 1.6 0.00 0.00 0.00 27 1009.7
20260508161541 22 127 0.0 1.6 0.00 0.00 0.00 30 1009.7
20260508160035 22 83 0.0 1.6 0.00 0.00 0.00 31 1009.6
20260508154528 21 104 0.0 0.0 0.00 0.00 0.00 31 1009.7
20260508153035 21 72 0.0 1.6 0.00 0.00 0.00 30 1009.7
20260508151536 20 72 0.0 1.6 0.00 0.00 0.00 33 1009.7
20260508150026 21 72 0.0 1.6 0.00 0.00 0.00 32 1009.8
20260508144519 20 72 0.0 0.0 0.00 0.00 0.00 35 1009.7
20260508143015 17 72 0.0 0.0 0.00 0.00 0.00 38 1009.8
20260508141513 15 72 0.0 1.6 0.00 0.00 0.00 45 1009.7
20260508140008 12 72 0.0 0.0 0.00 0.00 0.00 58 1009.7
20260508134506 10 70 0.0 0.0 0.00 0.00 0.00 63 1009.6
20260508133003 10 70 0.0 0.0 0.00 0.00 0.00 58 1009.3
20260508131603 10 70 0.0 0.0 0.00 0.00 0.00 56 1009.2
20260508124658 10 309 0.0 1.6 0.00 0.00 0.00 54 1008.9
20260508123103 10 309 0.0 1.6 0.00 0.00 0.00 54 1008.7
20260508121559 10 309 0.0 0.0 0.00 0.00 0.00 54 1008.6
20260508120056 10 309 0.0 0.0 0.00 0.00 0.00 56 1008.6
20260508114554 10 309 0.0 0.0 0.00 0.00 0.00 57 1008.5
20260508113101 10 309 0.0 0.0 0.00 0.00 0.00 54 1008.5
20260508111557 11 309 0.0 0.0 0.00 0.00 0.00 54 1008.5
20260508110050 11 309 0.0 1.6 0.00 0.00 0.00 53 1008.6
20260508104551 10 108 0.0 0.0 0.00 0.00 0.00 55 1008.5
20260508103046 10 109 0.0 0.0 0.00 0.00 0.00 56 1008.4
20260508101548 11 109 0.0 1.6 0.00 0.00 0.00 54 1008.5
20260508100042 11 80 0.0 1.6 0.00 0.00 0.00 50 1008.3
20260508094542 11 80 0.0 1.6 0.00 0.00 0.00 51 1008.2
20260508093041 11 81 0.0 1.6 0.00 0.00 0.00 52 1008.1
20260508091606 11 80 0.0 0.0 0.00 0.00 0.00 53 1008.1
20260508090040 11 80 0.0 0.0 0.00 0.00 0.00 54 1008.1
20260508084536 11 81 0.0 0.0 0.00 0.00 0.00 53 1008.1
20260508083037 12 80 0.0 0.0 0.00 0.00 0.00 52 1008.2
20260508081531 12 81 0.0 1.6 0.00 0.00 0.00 52 1008.2
20260508080030 12 80 0.0 0.0 0.00 0.00 0.00 49 1008.2
20260508074525 13 80 0.0 1.6 0.00 0.00 0.00 45 1008.2
20260508073028 13 80 0.0 0.0 0.00 0.00 0.00 44 1008.0
20260508071530 13 81 0.0 0.0 0.00 0.00 0.00 45 1007.9
20260508070024 13 80 0.0 1.6 0.00 0.00 0.00 44 1008.0
20260508064531 13 61 0.0 1.6 0.00 0.00 0.00 44 1008.1
20260508063021 12 61 0.0 1.6 0.00 0.00 0.00 45 1008.1
20260508061519 13 60 0.0 0.0 0.00 0.00 0.00 45 1008.1
20260508060016 13 61 0.0 0.0 0.00 0.00 0.00 46 1008.1
20260508054515 13 61 0.0 0.0 0.00 0.00 0.00 44 1007.9
20260508053015 14 61 0.0 1.6 0.00 0.00 0.00 43 1007.8
20260508051517 14 3 0.0 1.6 0.00 0.00 0.00 42 1007.7
20260508050015 15 305 0.0 1.6 0.00 0.00 0.00 43 1007.7
20260508044514 15 305 0.0 4.8 0.00 0.00 0.00 39 1007.8
20260508043013 15 108 0.0 1.6 0.00 0.00 0.00 40 1007.7
20260508041518 15 107 0.0 0.0 0.00 0.00 0.00 39 1007.6
20260508040012 15 107 0.0 0.0 0.00 0.00 0.00 39 1007.6
20260508034518 15 108 0.0 0.0 0.00 0.00 0.00 38 1007.3
20260508033021 16 107 0.0 0.0 0.00 0.00 0.00 38 1007.4
20260508031510 16 107 0.0 1.6 0.00 0.00 0.00 37 1007.2
20260508030015 17 107 0.0 1.6 0.00 0.00 0.00 35 1007.0
20260508024515 18 107 0.0 0.0 0.00 0.00 0.00 34 1007.1
20260508023009 19 107 0.0 0.0 0.00 0.00 0.00 31 1007.0
20260508021508 20 108 0.0 0.0 0.00 0.00 0.00 30 1006.9
20260508020007 22 107 0.0 0.0 0.00 0.00 0.00 25 1006.8
20260508014512 23 107 0.0 0.0 0.00 0.00 0.00 23 1006.7
20260508013006 26 107 0.0 1.6 0.00 0.00 0.00 19 1006.8
20260508011505 27 108 0.0 1.6 0.00 0.00 0.00 18 1006.9
20260508010003 26 82 0.0 1.6 0.00 0.00 0.00 20 1007.0
20260508004600 25 117 0.0 1.6 0.00 0.00 0.00 22 1007.2
20260508003117 25 117 0.0 1.6 0.00 0.00 0.00 22 1007.3
20260508001601 23 117 0.0 1.6 0.00 0.00 0.00 24 1007.5
20260508000055 24 110 0.0 0.0 0.00 0.00 0.00 23 1007.7
20260507234554 25 127 0.0 1.6 0.00 0.00 0.00 23 1007.9
20260507233052 26 190 0.0 3.2 0.00 0.00 0.00 20 1007.9
20260507231552 27 124 0.0 3.2 0.00 0.00 0.00 19 1008.2
20260507230106 26 63 0.0 4.8 0.00 0.00 0.00 21 1008.5
20260507224547 27 119 0.0 3.2 0.00 0.00 0.00 20 1008.8
20260507223132 27 228 0.0 4.8 0.00 0.00 0.00 21 1009.0
20260507221544 27 138 0.0 3.2 0.00 0.00 0.00 20 1009.1
20260507220043 26 121 0.0 3.2 0.00 0.00 0.00 20 1009.2
20260507214551 26 262 0.0 4.8 0.00 0.00 0.00 21 1009.6